TimeCDT,TemperatureF,Dew PointF,Humidity,Sea Level PressureIn,VisibilityMPH,Wind Direction,Wind SpeedMPH,Gust SpeedMPH,PrecipitationIn,Events,Conditions,WindDirDegrees,DateUTC
12:15 AM,57.2,56.3,97,29.79,1.2,SW,9.2,-,N/A,,Overcast,230,2012-10-23 05:15:00
12:35 AM,57.2,56.3,97,29.79,1.8,SSW,6.9,-,N/A,,Overcast,210,2012-10-23 05:35:00
12:55 AM,57.2,56.5,97,29.80,3.0,SSW,11.5,-,N/A,,Overcast,200,2012-10-23 05:55:00
1:15 AM,57.4,56.5,97,29.80,4.0,SSW,8.1,-,N/A,,Overcast,210,2012-10-23 06:15:00
1:35 AM,57.2,56.3,97,29.80,3.0,SW,8.1,-,N/A,,Overcast,230,2012-10-23 06:35:00
1:55 AM,56.7,55.8,97,29.80,2.5,SSW,5.8,-,N/A,,Overcast,210,2012-10-23 06:55:00
2:15 AM,56.3,55.4,97,29.79,2.0,SSW,5.8,-,N/A,,Overcast,200,2012-10-23 07:15:00
2:55 AM,55.9,55.4,98,29.78,3.0,South,6.9,-,N/A,,Overcast,190,2012-10-23 07:55:00
3:15 AM,55.8,55.0,97,29.78,3.0,SSW,4.6,-,N/A,,Overcast,200,2012-10-23 08:15:00
3:35 AM,55.6,54.9,97,29.77,1.5,South,5.8,-,N/A,,Overcast,190,2012-10-23 08:35:00
3:55 AM,55.6,54.9,97,29.77,1.5,South,4.6,-,N/A,,Overcast,190,2012-10-23 08:55:00
4:15 AM,55.4,54.5,97,29.77,2.5,SSW,3.5,-,N/A,,Overcast,210,2012-10-23 09:15:00
4:35 AM,55.0,54.5,98,29.76,1.5,South,4.6,-,N/A,,Overcast,190,2012-10-23 09:35:00
5:15 AM,54.1,53.6,98,29.77,1.0,SW,3.5,-,N/A,,Overcast,230,2012-10-23 10:15:00
5:35 AM,54.1,53.6,98,29.77,0.8,Calm,Calm,-,N/A,,Overcast,0,2012-10-23 10:35:00
5:55 AM,54.5,53.8,97,29.76,0.5,Calm,Calm,-,N/A,Fog,Fog,0,2012-10-23 10:55:00
6:35 AM,54.1,53.6,98,29.77,0.2,Calm,Calm,-,N/A,Fog,Fog,0,2012-10-23 11:35:00
6:55 AM,54.1,53.6,98,29.77,0.2,Calm,Calm,-,N/A,Fog,Fog,0,2012-10-23 11:55:00
7:15 AM,54.5,53.8,97,29.77,0.2,Calm,Calm,-,N/A,Fog,Fog,0,2012-10-23 12:15:00
7:35 AM,54.5,53.8,97,29.77,0.5,Calm,Calm,-,N/A,Fog,Fog,0,2012-10-23 12:35:00
7:55 AM,54.5,54.0,98,29.77,0.8,Calm,Calm,-,N/A,,Overcast,0,2012-10-23 12:55:00
8:15 AM,54.7,54.1,98,29.76,0.5,Calm,Calm,-,N/A,Fog,Fog,0,2012-10-23 13:15:00
8:35 AM,54.9,54.5,99,29.76,0.8,East,3.5,-,N/A,,Overcast,100,2012-10-23 13:35:00
8:55 AM,55.4,54.9,98,29.77,0.5,East,3.5,-,N/A,Fog,Fog,100,2012-10-23 13:55:00
9:15 AM,55.9,55.4,98,29.77,0.2,Calm,Calm,-,N/A,Fog,Fog,0,2012-10-23 14:15:00
9:35 AM,56.5,55.9,98,29.77,0.5,Calm,Calm,-,N/A,Fog,Fog,0,2012-10-23 14:35:00
9:55 AM,56.8,56.3,98,29.77,0.8,East,5.8,-,N/A,,Overcast,100,2012-10-23 14:55:00
10:15 AM,57.9,57.4,98,29.76,1.2,ESE,5.8,-,N/A,,Overcast,110,2012-10-23 15:15:00
10:55 AM,60.1,59.4,97,29.74,3.0,SE,5.8,-,N/A,,Overcast,130,2012-10-23 15:55:00
11:15 AM,61.0,60.3,97,29.74,4.0,SE,4.6,-,N/A,,Overcast,130,2012-10-23 16:15:00
11:35 AM,62.4,61.5,97,29.73,5.0,SSE,6.9,-,N/A,,Overcast,150,2012-10-23 16:35:00
11:55 AM,64.2,62.8,95,29.72,7.0,SE,8.1,-,N/A,,Overcast,140,2012-10-23 16:55:00
12:15 PM,66.4,62.1,86,29.72,7.0,SSE,8.1,-,N/A,,Overcast,150,2012-10-23 17:15:00
12:35 PM,67.8,63.0,84,29.72,10.0,SSE,6.9,-,N/A,,Overcast,160,2012-10-23 17:35:00
12:55 PM,68.7,63.5,83,29.71,10.0,SE,5.8,-,N/A,,Overcast,140,2012-10-23 17:55:00
1:15 PM,70.0,64.0,81,29.69,10.0,SSE,4.6,-,N/A,,Overcast,160,2012-10-23 18:15:00
1:35 PM,72.5,64.2,75,29.68,10.0,South,8.1,-,N/A,,Overcast,180,2012-10-23 18:35:00
1:55 PM,72.5,63.7,74,29.67,10.0,SSE,5.8,-,N/A,,Overcast,150,2012-10-23 18:55:00
2:15 PM,75.9,62.1,62,29.67,10.0,South,17.3,23.0,N/A,,Overcast,170,2012-10-23 19:15:00
2:35 PM,77.5,61.0,57,29.66,10.0,SSE,16.1,24.2,N/A,,Mostly Cloudy,160,2012-10-23 19:35:00
2:55 PM,77.5,61.2,57,29.65,10.0,South,16.1,21.9,N/A,,Mostly Cloudy,180,2012-10-23 19:55:00
3:15 PM,78.1,61.2,56,29.65,10.0,SSE,13.8,20.7,N/A,,Mostly Cloudy,160,2012-10-23 20:15:00
3:35 PM,78.4,60.8,55,29.65,10.0,South,17.3,20.7,N/A,,Mostly Cloudy,180,2012-10-23 20:35:00
3:55 PM,78.8,60.6,54,29.64,10.0,South,16.1,-,N/A,,Mostly Cloudy,180,2012-10-23 20:55:00
4:15 PM,81.0,60.3,49,29.64,10.0,South,18.4,-,N/A,,Mostly Cloudy,180,2012-10-23 21:15:00
4:35 PM,80.2,59.7,49,29.65,10.0,South,12.7,-,N/A,,Scattered Clouds,190,2012-10-23 21:35:00
4:55 PM,80.1,59.9,50,29.65,10.0,SSW,10.4,-,N/A,,Mostly Cloudy,210,2012-10-23 21:55:00
5:15 PM,80.2,59.4,49,29.66,10.0,SSW,8.1,-,N/A,,Scattered Clouds,210,2012-10-23 22:15:00
5:35 PM,80.1,58.6,48,29.66,10.0,SW,8.1,-,N/A,,Scattered Clouds,220,2012-10-23 22:35:00
5:55 PM,78.8,58.6,50,29.65,10.0,SSW,6.9,-,N/A,,Clear,210,2012-10-23 22:55:00
6:15 PM,76.5,58.1,53,29.65,10.0,WSW,5.8,-,N/A,,Clear,250,2012-10-23 23:15:00
6:35 PM,69.8,60.8,73,29.65,10.0,Calm,Calm,-,N/A,,Clear,0,2012-10-23 23:35:00
6:55 PM,68.5,61.7,79,29.67,10.0,WNW,4.6,-,N/A,,Clear,300,2012-10-23 23:55:00
7:15 PM,67.3,61.7,82,29.69,10.0,NW,5.8,-,N/A,,Clear,320,2012-10-24 00:15:00
7:35 PM,65.8,61.0,84,29.69,10.0,WNW,4.6,-,N/A,,Clear,290,2012-10-24 00:35:00
7:55 PM,65.7,61.5,86,29.70,10.0,NNW,4.6,-,N/A,,Clear,330,2012-10-24 00:55:00
8:15 PM,64.6,61.0,88,29.71,10.0,NW,5.8,-,N/A,,Clear,320,2012-10-24 01:15:00
8:35 PM,65.3,61.3,87,29.71,10.0,North,4.6,-,N/A,,Clear,350,2012-10-24 01:35:00
8:55 PM,64.8,61.3,89,29.72,10.0,NNE,4.6,-,N/A,,Clear,20,2012-10-24 01:55:00
9:15 PM,62.6,60.3,92,29.74,7.0,NW,5.8,-,N/A,,Clear,310,2012-10-24 02:15:00
9:35 PM,62.1,59.9,93,29.74,7.0,NW,6.9,-,N/A,,Clear,310,2012-10-24 02:35:00
9:55 PM,60.8,58.8,93,29.74,7.0,NW,4.6,-,N/A,,Clear,310,2012-10-24 02:55:00
10:15 PM,59.9,58.1,94,29.74,5.0,NW,4.6,-,N/A,,Clear,310,2012-10-24 03:15:00
10:35 PM,59.0,57.7,96,29.74,5.0,NW,5.8,-,N/A,,Clear,310,2012-10-24 03:35:00
10:55 PM,59.0,57.7,96,29.76,5.0,NW,9.2,-,N/A,,Clear,310,2012-10-24 03:55:00
11:35 PM,57.6,55.9,94,29.76,4.0,NNW,3.5,-,N/A,,Clear,330,2012-10-24 04:35:00
11:55 PM,57.4,56.1,96,29.77,4.0,Calm,Calm,-,N/A,,Clear,0,2012-10-24 04:55:00